Weather History for Tekamah, NE

Change the Weather History Date:

Tuesday, May 14, 2013

  Actual Average Record
Temperature  
Mean Temperature 83 °F -  
Max Temperature 108 °F 73 °F 108 °F (2013)
Min Temperature 59 °F 49 °F 34 °F (2004)
Cooling Degree Days 18    
Growing Degree Days 33 (Base 50)    
Moisture  
Dew Point 46 °F    
Average Humidity 36    
Maximum Humidity 78    
Minimum Humidity 9    
Precipitation  
Precipitation 0.00 in - - ()
Sea Level Pressure  
Sea Level Pressure 29.66 in    
Wind  
Wind Speed 11 mph (SSW)    
Max Wind Speed 28 mph    
Max Gust Speed 46 mph    
Visibility 10 miles    
Events Thunderstorm    
Averages and records for this station are not official NWS values.
T = Trace of Precipitation, MM = Missing Value Source: NWS Daily Summary

Daily Weather History Graph

Daily Weather History Graph

Search for Another Location

Airport:

Trip Planner

Search our weather history database for the weather conditions in past years. The results will help you decide how hot, cold, wet, or windy it might be!

Date:

Astronomy

May. 14, 2013 Rise Set
Actual Time 6:05 AM CDT 8:37 PM CDT
Civil Twilight 5:33 AM CDT 9:08 PM CDT
Nautical Twilight 4:54 AM CDT 9:48 PM CDT
Astronomical Twilight 4:10 AM CDT 10:33 PM CDT
Moon 9:46 AM CDT (5/14) No Moon Set
Length of Visible Light 15h 34m
Length of Day
14h 31m
Waxing Crescent, 19% of the Moon is Illuminated
May 14
Waxing Crescent
May 17
First Quarter
May 24
Full
May 31
Last Quarter
Jun 8
New

Hourly Weather History & Observations

Time (CDT) Temp. Heat Index Dew Point Humidity Pressure Visibility Wind Dir Wind Speed Gust Speed Precip Events Conditions
12:54 AM 70.0 °F - 52.0 °F 53% 29.78 in 10.0 mi South 8.1 mph - N/A   Clear
1:54 AM 66.9 °F - 53.1 °F 61% 29.77 in 10.0 mi South 4.6 mph - N/A   Clear
2:54 AM 64.9 °F - 53.1 °F 65% 29.75 in 10.0 mi South 6.9 mph - N/A   Clear
3:54 AM 62.1 °F - 53.1 °F 72% 29.74 in 10.0 mi SSE 4.6 mph - N/A   Clear
4:54 AM 61.0 °F - 53.1 °F 75% 29.74 in 10.0 mi SSE 9.2 mph - N/A   Clear
5:54 AM 59.0 °F - 52.0 °F 78% 29.73 in 9.0 mi SSE 11.5 mph - N/A   Clear
6:54 AM 60.1 °F - 53.1 °F 78% 29.73 in 5.0 mi SE 8.1 mph - N/A   Haze
7:54 AM 68.0 °F - 55.9 °F 65% 29.72 in 7.0 mi SSE 10.4 mph - N/A   Clear
8:54 AM 73.9 °F - 57.9 °F 57% 29.70 in 9.0 mi South 11.5 mph - N/A   Clear
9:54 AM 81.0 °F 80.7 °F 55.0 °F 41% 29.68 in 10.0 mi SSW 10.4 mph - N/A   Clear
10:54 AM 89.1 °F 87.1 °F 55.0 °F 31% 29.66 in 10.0 mi SSW 12.7 mph - N/A   Clear
11:54 AM 95.0 °F 92.5 °F 53.1 °F 24% 29.64 in 10.0 mi South 15.0 mph - N/A   Clear
12:54 PM 102.9 °F - 46.0 °F 15% 29.60 in 10.0 mi SW 20.7 mph 32.2 mph N/A   Clear
1:54 PM 107.1 °F - 39.0 °F 10% 29.58 in 10.0 mi SSW 24.2 mph 35.7 mph N/A   Clear
2:54 PM 104.0 °F - 35.1 °F 9% 29.56 in 10.0 mi SW 27.6 mph 39.1 mph N/A   Clear
3:54 PM 104.0 °F - 35.1 °F 9% 29.55 in 10.0 mi SW 20.7 mph 33.4 mph N/A   Clear
4:24 PM 100.4 °F - 35.6 °F 11% 29.60 in 9.0 mi WSW 25.3 mph 32.2 mph N/A Thunderstorm Clear
4:43 PM 100.4 °F - 37.4 °F 11% 29.60 in 10.0 mi SW 18.4 mph 46.0 mph N/A   Partly Cloudy
4:54 PM 100.0 °F - 39.0 °F 12% 29.55 in 10.0 mi WSW 24.2 mph 33.4 mph N/A   Partly Cloudy
5:54 PM 102.0 °F - 39.9 °F 12% 29.56 in 10.0 mi SW 19.6 mph 23.0 mph N/A   Clear
6:54 PM 99.0 °F - 42.1 °F 14% 29.57 in 10.0 mi SW 8.1 mph 26.5 mph N/A   Clear
7:54 PM 93.9 °F - 48.0 °F 21% 29.59 in 10.0 mi North 6.9 mph - N/A   Clear
8:54 PM 87.1 °F - 44.1 °F 22% 29.63 in 10.0 mi North 19.6 mph - N/A   Clear
9:54 PM 80.1 °F - 39.9 °F 24% 29.68 in 10.0 mi North 11.5 mph - N/A   Clear
10:54 PM 75.9 °F - 37.9 °F 25% 29.70 in 10.0 mi North 9.2 mph - N/A   Clear
11:54 PM 68.0 °F - 39.9 °F 36% 29.73 in 9.0 mi Calm Calm - N/A   Clear